Regional Weather Roundup
Issued by NWS

Home | Current Version | Previous Version | Graphics & Text | Print | Product List | Glossary On
Versions: 1 2 3 4 5 6 7 8 9 10 11 12 13 14 15 16 17 18 19 20 21 22 23 24 25 26 27 28 29 30 31 32 33 34 35 36 37 38 39 40 41 42 43 44 45 46 47 48 49 50
000
ASUS43 KMKX 061710
RWRWI

WISCONSIN REGIONAL WEATHER ROUNDUP
NATIONAL WEATHER SERVICE MILWAUKEE/SULLIVAN WI
1100 AM CST FRI MAR 06 2015

NOTE: "FAIR" INDICATES FEW OR NO CLOUDS BELOW 12,000 FEET WITH NO
SIGNIFICANT WEATHER AND/OR OBSTRUCTIONS TO VISIBILITY.

WIZ001-002-006>008-014>016-023>028-061800-
NORTHWEST WISCONSIN

CITY           SKY/WX    TMP DP  RH WIND       PRES   REMARKS
SUPERIOR ARPT  SUNNY     24  10  55 W10       30.00F WCI  13
ASHLAND        SUNNY     23   7  50 SW10G22   29.99F WCI  12
HAYWARD        SUNNY     20   6  55 SW9       29.99F WCI   9
SIREN          SUNNY     23   9  54 SW8       30.03F WCI  14
CUMBERLAND     SUNNY     21   9  58 SW10      30.02F WCI  10
RICE LAKE      SUNNY     21   8  57 SW8       30.06S WCI  11
CHETEK         SUNNY     21   7  55 S6        30.05F WCI  13
LADYSMITH      PTSUNNY   17   5  58 S9        30.05F WCI   6
EAU CLAIRE     CLOUDY    22   8  55 SW12      30.07S WCI  10
MENOMONIE      CLOUDY    23  10  56 SW10      30.08F WCI  12
NEW RICHMOND   SUNNY     23  10  57 SW9       30.05F WCI  13
OSCEOLA        SUNNY     25  11  54 SW6       30.08S WCI  18
$$

WIZ003>005-009-010-017-018-061800-
NORTH CENTRAL WISCONSIN

CITY           SKY/WX    TMP DP  RH WIND       PRES   REMARKS
MANITOWISH WTR MOSUNNY   17   4  56 SW13G18   29.95F WCI   3
ARBOR VITAE    PTSUNNY   19   6  56 S16       29.96F WCI   5
WOODRUFF       PTSUNNY   19   6  56 S16       29.96F WCI   5
RHINELANDER    CLOUDY    15   3  59 SW10G18   29.99F WCI   2
EAGLE RIVER    MOSUNNY   16   1  51 SW12G17   29.96F WCI   3
LAND O LAKES   CLOUDY    20   3  48 SW9       29.95F WCI   9
PHILLIPS       SUNNY     16   4  58 SW10      29.99F WCI   4
TOMAHAWK       CLOUDY    18   4  55 W6        30.02F WCI   9
MEDFORD        CLOUDY    15   5  63 SW9       30.04S WCI   3
MERRILL        PTSUNNY   17   4  57 SW13      30.05F WCI   3
$$

WIZ029-030-035-036-043>047-061800-
CENTRAL WISCONSIN

CITY           SKY/WX    TMP DP  RH WIND       PRES   REMARKS
WAUSAU         CLOUDY    18   5  57 SW14      30.05F WCI   4
MOSINEE        PTSUNNY   18   7  62 S13       30.08F WCI   4
MARSHFIELD     CLOUDY    21   8  57 SW13      30.07F WCI   9
STEVENS POINT  CLOUDY    20   6  54 SW15      30.09F WCI   6
WAUPACA        PTSUNNY   26   7  44 S13       30.14F WCI  15
WAUTOMA        SUNNY     25   8  48 SW17G24   30.14F WCI  12
WISC RAPIDS    CLOUDY    22   6  50 SW14      30.11F WCI   9
CAMP DOUGLAS   CLOUDY    23  10  58 S8        30.13F WCI  14
$$

WIZ011>013-019>022-031-037>040-048>050-061800-
NORTHEAST WISCONSIN

CITY           SKY/WX    TMP DP  RH WIND       PRES   REMARKS
ANTIGO         CLOUDY    17   6  61 SW15      30.02F WCI   2
SHAWANO        PTSUNNY   22   5  47 SW14G21   30.12F WCI   9
OCONTO         MOSUNNY   21   5  49 SW9G17    30.13F WCI  11
STURGEON BAY   PTSUNNY   19   3  49 SW23      30.15F WCI   2
GREEN BAY      MOSUNNY   17   6  62 S16G23    30.16F WCI   2
MANITOWOC      CLOUDY    23   7  50 S13       30.20F WCI  11
APPLETON       MOSUNNY   18   5  57 S17G25    30.15F WCI   2
CLINTONVILLE   MOSUNNY   21   7  53 SW14      30.13F WCI   8
OSHKOSH        MOSUNNY   20   7  57 SW21G31   30.17F WCI   4
$$

WIZ032>034-041-042-053>061-061800-
SOUTHWEST WISCONSIN

CITY           SKY/WX    TMP DP  RH WIND       PRES   REMARKS
LA CROSSE      SUNNY     23  10  57 S12       30.15F WCI  12
SPARTA         SUNNY     26   9  50 S10G16    30.13F WCI  15
VIROQUA        SUNNY     22  10  60 S13       30.13F WCI   9
BOSCOBEL       MOSUNNY   24   9  52 SW12      30.21F WCI  13
PRAIRIE DU CHI SUNNY     24  10  53 S7        30.21F WCI  16
PLATTEVILLE    SUNNY     19  10  66 S14       30.21F WCI   6
$$

WIZ056-057-062-063-064-067-068-061800-
SOUTH CENTRAL WISCONSIN

CITY           SKY/WX    TMP DP  RH WIND       PRES   REMARKS
REEDSBURG      MOSUNNY   23  10  57 SW20G25   30.17F WCI   8
BARABOO/DELLS  SUNNY     23   8  53 SW13G23   30.16F WCI  11
LONE ROCK      SUNNY     21   7  54 SW15      30.21F WCI   8
MINERAL POINT  SUNNY     21   9  58 S15       30.19F WCI   8
MADISON        MOSUNNY   20   5  52 SW10      30.22F WCI   9
MIDDLETON      SUNNY     25   5  42 SW16G25   30.20F WCI  12
WATERTOWN      SUNNY     20   8  58 S9        30.23F WCI  10
MONROE         SUNNY     21  10  63 S18       30.22S WCI   6
JANESVILLE     SUNNY     21   7  53 S16G25    30.26F WCI   7
$$

WIZ051-052-058>065-066-070>072-061800-
SOUTHEAST WISCONSIN

CITY           SKY/WX    TMP DP  RH WIND       PRES   REMARKS
MILWAUKEE      PTSUNNY   20   5  52 SW21G28   30.27F WCI   4
WAUKESHA       SUNNY     19   5  53 S14       30.25F WCI   6
MILWAUKEE/TIMM SUNNY     19   3  49 S12G20    30.26F WCI   7
RACINE         SUNNY     20   6  55 S15G28    30.29F WCI   6
BURLINGTON     MOSUNNY   19   6  59 SW23      30.26F WCI   1
KENOSHA        MOSUNNY   20   7  57 S18       30.28F WCI   5
FOND DU LAC    SUNNY     21   5  50 S17G29    30.18F WCI   7
SHEBOYGAN      MOSUNNY   21   7  54 S20       30.21F WCI   6
WEST BEND      SUNNY     23   5  46 SW12      30.21F WCI  12
JUNEAU         SUNNY     19   7  59 S17       30.22F WCI   4
$$

LSZ147-162-061800-
LAKE SUPERIOR

STATION/POSITION TIME  TEMP    WIND        PRES    WAVE
                       AIR SEA DIR/SP/G            HT/PER
                 (UTC) (F)     (DEG/KT/KT) (MB)    (FT/S)
DEVILS ISLAND    1700   20     240/ 22/ 26 1015.5F
PORT WING        1640   23     260/ 14/ 18 1015.6F
SAXON HARBOR     1600   20     200/ 11/ 16 1015.9S
$$

LMZ867-665-643>646-061800-
LAKE MICHIGAN

STATION/POSITION TIME  TEMP    WIND        PRES    WAVE
                       AIR SEA DIR/SP/G            HT/PER
                 (UTC) (F)     (DEG/KT/KT) (MB)    (FT/S)
NORTHPORT PIER   1602   18     220/ 10/ 22 1021.0F
SISTER BAY       1628   25     240/ 14/ 19   N/A
KEWAUNEE LAKESHO 1600   17     220/ 11/ 19 1022.1F
SHEBOYGAN LAKESH 1700   20     210/ 21/ 24 1024.8F
PORT WASHINGTON  1600   20     190/ 12/ 17 1025.7
MILWAUKEE LAKESH 1600   17     220/ 16/ 19   N/A
KENOSHA   LAKESH 1700   20     200/ 14/ 22 1025.7F
$$

TC  - TEMPERATURE IN CELSIUS
VSB - VISIBILITY IN STATUTE MILES
WCI - WIND CHILL INDEX
HX  - HEAT INDEX




USA.gov is the U.S. government's official web portal to all federal, state and local government web resources and services.